Regional Weather Roundup
Issued by NWS

Home | Current Version | Previous Version | Graphics & Text | Print | Product List | Glossary Off
Versions: 1 2 3 4 5 6 7 8 9 10 11 12 13 14 15 16 17 18 19 20 21 22 23 24 25 26 27 28 29 30 31 32 33 34 35 36 37 38 39 40 41 42 43 44 45 46 47 48 49 50

000
ASUS43 KDMX 221001
RWRIA

WEATHER ROUNDUP FOR IOWA
NATIONAL WEATHER SERVICE DES MOINES IA
400 AM CST WED FEB 22 2017

NOTE: "FAIR" INDICATES FEW OR NO CLOUDS BELOW 12,000 FEET WITH NO
SIGNIFICANT WEATHER AND/OR OBSTRUCTIONS TO VISIBILITY.

* - THESE STATIONS ARE NOT NWS STATIONS...THUS NOT UNDER NWS
QUALITY CONTROL.  THEY ALSO DO NOT REPORT WEATHER SUCH
AS PRECIPITATION OR FOG.

IAZ001>003-012>014-020>022-031>034-043>046-221100-
   NORTHWEST IOWA

CITY           SKY/WX    TMP DP  RH WIND       PRES   REMARKS
CARROLL *      CLEAR     48  37  66 SW18G26   29.66F
CHEROKEE *     CLEAR     44  34  67 S5        29.65S
DENISON *      CLEAR     46  36  66 S7        29.66F
LE MARS *      CLEAR     37  34  87 S5        29.65F WCI  34
ORANGE CITY *  PTCLDY    39  36  87 S6        29.63F WCI  35
SHELDON *      PTCLDY    39  37  93 S7        29.62F WCI  34
SIOUX CITY     CLEAR     39  33  79 E6        29.65F WCI  35
SPENCER        PTCLDY    35  32  88 S6        29.63F WCI  30
STORM LAKE *   CLEAR     46  36  66 SW13      29.66S
$$

IAZ055>058-069>071-079>083-090>094-221100-
   SOUTHWEST IOWA

CITY           SKY/WX    TMP DP  RH WIND       PRES   REMARKS
ATLANTIC *     CLEAR     43  36  75 S9        29.72F
CLARINDA *     CLEAR     45  36  70 S6        29.77F
COUNCIL BLFS * CLEAR     54  36  50 S13G18    29.71S
CRESTON *      CLEAR     41  34  75 S12       29.76F
HARLAN  *      CLEAR     43  37  81 S9        29.73F
LAMONI         CLEAR     46  35  65 S12       29.77F
RED OAK *      CLEAR     39  34  81 CALM      29.73F
SHENANDOAH *   CLEAR     43  34  70 CALM      29.75F
$$

IAZ047>049-059>061-072>074-084-221100-
   CENTRAL IOWA

CITY           SKY/WX    TMP DP  RH WIND       PRES   REMARKS
AMES           CLEAR     45  37  73 S8        29.70F
ANKENY *       CLEAR     50  32  50 SW6       29.74S
BOONE *        CLEAR     50  36  57 SW13G20   29.68F
CHARITON *     CLEAR     46  37  71 S12       29.76F
DES MOINES     CLEAR     51  32  48 SW9       29.73F
GRINNELL*      CLEAR     47  35  63 S12       29.75F
KNOXVILLE *    CLEAR     52  36  54 SW12      29.73F
MARSHALLTOWN   CLEAR     47  35  63 S10       29.72S
NEWTON *       CLEAR     45  34  65 S9        29.73F
PELLA *        CLEAR     49  37  61 SW8       29.76F
PERRY *          N/A     47  37  66 S16       29.69F
$$

IAZ004>006-015-016-023>025-035-036-221100-
   NORTH CENTRAL IOWA

CITY           SKY/WX    TMP DP  RH WIND       PRES   REMARKS
ALGONA *       CLEAR     45  37  76 S5        29.65F
CLARION *      CLEAR     41  37  87 NW9       29.68R
ESTHERVILLE    CLOUDY    41  36  82 SW3       29.63R
FORT DODGE *   CLEAR     46  34  61 S10       29.66F
MASON CITY     CLEAR     41  35  79 SW5       29.68F
FOREST CITY *    N/A     36  32  87 S6        29.66F WCI  31
WEBSTER CITY * CLEAR     48  36  61 S14       29.64F
IOWA FALLS *     N/A     43  35  74 S14       29.69F
$$

IAZ007>011-017>019-026>030-037>042-050>054-066-221100-
   NORTHEAST IOWA

CITY           SKY/WX    TMP DP  RH WIND       PRES   REMARKS
CEDAR RAPIDS   CLEAR     45  44  97 S8        29.74F
CHARLES CITY * PTCLDY    39  37  93 S5G14     29.69S
CLINTON *      LGT RAIN  46  46 100 S7        29.80S VSB 1/4
DECORAH *      CLEAR     48  34  57 SW7       29.69S
DUBUQUE        FOG       45  45 100 S13       29.75F VSB 1/4
MONTICELLO *   CLEAR     45  45 100 S8        29.75F FOG
OELWEIN *      PTCLDY    41  36  81 S9        29.71F
WATERLOO       CLEAR     45  34  65 S12       29.69F
$$

IAZ064-065-067-068-078-221100-
   EAST CENTRAL IOWA

CITY           SKY/WX    TMP DP  RH WIND       PRES   REMARKS
DAVENPORT      CLEAR     52  51  97 S9        29.80F FOG
IOWA CITY      FOG       43  42  97 CALM      29.79F VSB 1/4
MUSCATINE *    FOG       39  39 100 CALM      29.80F VSB<1/4
QUAD CITIES    PTCLDY    54  52  93 SW8       29.80S FOG
$$

IAZ062-063-075>077-085>089-095>099-221100-
   SOUTHEAST IOWA

CITY           SKY/WX    TMP DP  RH WIND       PRES   REMARKS
BURLINGTON     FOG       53  53 100 SW9       29.81F VSB 1/4
FAIRFIELD *    CLEAR     50  50 100 S9        29.78S
KEOKUK *       FOG       52  52 100 S8        29.81F VSB<1/4
OTTUMWA        CLEAR     48  43  82 S12       29.77S
WASHINGTON *   PTCLDY    48  48 100 S8        29.79S FOG
$$

ABBREVIATIONS USED IN REMARKS
   TC - TEMPERATURES IN CELSIUS
  WCI - WIND CHILL INDEX
   HX - HEAT INDEX
  VSB - VISIBILITY
$$




USA.gov is the U.S. government's official web portal to all federal, state and local government web resources and services.